Espace membre
ImprimablePdf
Brugge, 13/05/2012, BEL - Dwars door Brugge
Liste des rapports > 15km - Classement
Recherche: Page: [1]
111 Entrées
 
Les réclamations ne sont plus acceptées, les résultats sont considérés comme définitifs.
RangNrNomAgeIOCTempsTkmMoy.ScrLocalité
1.72FDANNEELS Anne-Marie50BEL53:553:44 16.1454
2.247FROGIERS Katrien51BEL1:05:294:31 13.29718ROESELARE
3.3990FMARECHAL Veerle52BEL1:07:084:38 12.96888
4.2727FWENS Annemie50BEL1:11:294:56 12.171386KIELDRECHT
5.1550FVANDERYSE Leen50BEL1:11:344:57 12.161395HOOGLEDE
6.5267FFRANÃOIS Evelyne50BEL1:11:404:57 12.141412
7.5030FPRIEM Carine54BEL1:13:105:03 11.891605
8.4882FLEBBE Patricia51BEL1:13:465:06 11.791692
9.5395FDEWULF Siska53BEL1:14:315:09 11.681775
10.4511FEMMERY Mia52BEL1:14:395:09 11.661801SINT-MICHIELS
11.4188FDE BOISERIE Ann53BEL1:14:505:10 11.631821
12.4954FHOFMAN Bea50BEL1:15:055:11 11.591845
13.2777FBOUTENS Katrien50BEL1:16:305:17 11.372050SINT-MICHIELS
14.2568FREZETTE Monique51BEL1:17:205:20 11.252178NEUPRE
15.4703FVERVISCH Martine51BEL1:18:385:26 11.072353BRUGGE
16.2728FDE COUCK Linda53BEL1:19:035:28 11.012407GENTBRUGGE
17.3320FHUVAERE Kathy50BEL1:19:175:29 10.982439ROESELARE
18.4874FVERCAMMEN Ann50BEL1:19:335:30 10.942465
19.2219FTEETAERT Christine50BEL1:19:345:30 10.932471BRUGGE
20.3583FMENLEMAN Karine53BEL1:19:445:30 10.912491
21.5391FWEIBROEKDREEF Greet50BEL1:19:505:31 10.902504
22.5171FVERSTRYNGE Martine53BEL1:19:515:31 10.902506
23.2184FGARBACZ Marie-Christine52BEL1:20:055:32 10.862544WAREMME
24.3377FVAN HECKE Regine50BEL1:20:135:32 10.852563BRUGGE
25.4851FVANDERHAEGEN Carine50BEL1:20:175:33 10.842575BLANKENBERGE
26.5324FDE GROOTE Kathy51BEL1:20:205:33 10.832582
27.2216FDAENINCK Marleen52BEL1:20:215:33 10.832587BEERNEM
28.1181FNEYT Manuella52BEL1:20:275:33 10.812597LOKEREN
29.4082FHOEKS Marie-Renee54BEL1:20:395:34 10.792619
30.1307FLAMOTTE Carine50BEL1:20:405:34 10.792621WEVELGEM
31.2202FDE WOLF Lut53BEL1:20:505:35 10.762638BEERNEM
32.2440FBAUTERS Ilse52BEL1:21:305:38 10.682700OOSTAKKER
33.1972FLUYCKX Marina52BEL1:21:355:38 10.662717ELINGEN
34.4699FDE MULDER Lieve52BEL1:21:495:39 10.632753SINT-ANDRIES
35.4660FCASIER Marijke53BEL1:21:535:39 10.632757SINT-ANDRIES
36.1772FGOETHALS Caroline51BEL1:22:035:40 10.602782BRUGGE
37.5398FLAMBERT Sabine51BEL1:22:035:40 10.602783
38.1937FDERUYTTER Marijke54BEL1:22:145:41 10.582804HOVE
39.4648FVANHOORNE Dorine50BEL1:22:155:41 10.582805
40.4899FNEIRYNCK Ann53BEL1:22:165:41 10.582809
41.1504FDE GROOTE Johanna50BEL1:22:175:41 10.572810KNOKKE-HEIST
42.2582FVANDEN DRIESSCHE Rita54BEL1:22:235:41 10.562821SNELLEGEM
43.3372FVAN DEN BONNE Pia50BEL1:22:325:42 10.542835ASSE
44.1644FVAN RENTERGHEM Regine54BEL1:22:455:43 10.512880EVERGEM
45.4709FDESOETE Nadia50BEL1:23:055:44 10.472916SINT-ANDRIES
46.4037FDE LAERE Johanna52BEL1:23:105:45 10.462931
47.5246FPOTTIER Marleen50BEL1:23:145:45 10.452945
48.3411FVERMEERSCH Heidi51BEL1:23:305:46 10.422975BRUGGE
49.4664FDEVRIENDT Marijke50BEL1:23:555:48 10.373019OOSTKAMP
50.1044FVAN ASPERT Marjan50NLD1:24:045:48 10.353029EINDHOVEN
51.1157FCANNOOT Hermine54BEL1:24:145:49 10.333053EEKLO
52.1567FBUSCHOP Lieve54BEL1:24:145:49 10.333054HEMIKSEM
53.3282FDE ROUCK Martine51BEL1:24:195:49 10.323065HAALTERT
54.1688FBOUTTELGIER Caroline53BEL1:24:335:50 10.293088DIKSMUIDE
55.4866FSAMYN Josee54BEL1:24:375:51 10.283091
56.5241FCLYBOUW Martine53BEL1:24:415:51 10.283098
57.2335FWESTDORP Ingrid53BEL1:24:455:51 10.273108VEURNE
58.5093FAMPE Ann50BEL1:24:535:52 10.253120
59.4895FVERCHAEVE Maureen51BEL1:25:075:53 10.223143
60.141FDE CRAENE Laurette53BEL1:25:185:53 10.203163WAARSCHOOT
61.4814FDEBRUYNE Griek53BEL1:25:485:55 10.143220
62.4376FSTANDAERT Katleen51BEL1:26:225:58 10.083278
63.2385FCOULIER Lieve52BEL1:26:225:58 10.073280AALTER
64.4546FHUYS Carine50BEL1:26:506:00 10.023318WINGENE
65.4876FSENGELOV Jeanette50BEL1:26:506:00 10.023319
66.4714FVAN NIEUWENHUYSE Marie-Christine50BEL1:26:536:00 10.013325ASSEBROEK/BRUGGE
67.1319FVAN IN Johanna52BEL1:26:586:00 10.003332ASSEBROEK
68.3446FMONTEYNE Marleen50BEL1:27:236:02 9.963356OOSTKAMP
69.3427FSTRUBBE Marleen53BEL1:27:276:02 9.953365BRUSSEL
70.4140FCLAUWS Carina52BEL1:27:366:03 9.933378
71.2587FHEYVAERTS Anita53BEL1:27:506:04 9.913398ASSEBROEK
72.2775FACKE Pascale50BEL1:27:596:05 9.893413BRUGGE
73.2228FCLAEYS Martine51BEL1:28:006:05 9.893416DE HAAN
74.4559FVERBUTSEL Tania50BEL1:28:296:07 9.833449ZEDELGEM
75.4892FWITTESAELE Carine53BEL1:28:366:07 9.823457
76.4573FSCHOTTE Hilde52BEL1:28:376:07 9.823458HILDE
77.4653FMESSENS Marie-Paule54BEL1:28:406:07 9.813464SINT-ANDRIES
78.4624FGOOSSENS Lieve51BEL1:28:576:09 9.783493WINGENE
79.4819FVILLEYN Lieve51BEL1:29:546:12 9.683564
80.2745FVAN MEENEN Claudine50BEL1:30:156:14 9.643581WESTKAPELLE
81.4934FWOUTERS Hilde51BEL1:30:316:15 9.613590
82.3304FDESLOOVERE Karien51BEL1:30:476:16 9.583611ZEDELGEM
83.1155FMARTENS Carine51BEL1:31:046:17 9.553632BRUGGE
84.4620FSANDERS Rita52BEL1:31:336:19 9.503656SINT-ANDRIES
85.4610FVAN OOTEGHEM Geertrui52BEL1:31:556:21 9.473680SINT-ANDRIES
86.4609FDE KETELAERE Brigitte53BEL1:31:556:21 9.473681BLANKENBERGE
87.4613FGOEMINNE Marianne51BEL1:31:566:21 9.463684ZUIENKERKE
88.2760FDELODDER Katrien52BEL1:32:066:22 9.453690SINT-MICHIELS
89.5281FDE WITTE Anneke50BEL1:32:076:22 9.443694
90.2588FSCHEEMAEKER Nadine51BEL1:32:086:22 9.443697VARSENARE
91.2595FCOSTA DE OLIVEIRA Piedade53BEL1:32:116:22 9.443702BRUXELLES
92.4553FDEBUSSCHERE Ines51BEL1:32:446:24 9.383727OOSTKAMP
93.4369FDE MOOR Irma52BEL1:33:106:26 9.343743
94.2831FBONTE Hilde51BEL1:33:416:28 9.293761SINT-ANDRIES
95.4719FDE PAUW Annick54BEL1:34:006:29 9.263772BLANKENBERGE
96.1574FVANHUELE Hilde51BEL1:34:106:30 9.243779SINT-KRUIS (BRUGGE)
97.4484FSCHOTTE Caroline54BEL1:34:446:32 9.183799GISTEL
98.1795FSEYNAEVE Gerda50BEL1:35:036:34 9.153811RUDDERVOORDE
99.5043FTEETAERT Christine51BEL1:35:166:35 9.133816
100.4950FDE SMEDT Nora52BEL1:35:496:37 9.083838
101.2286FVAN RENTERGHEM Nadine54BEL1:36:016:38 9.063844BRUGGE
102.4558FDEMEYERE Myriam50BEL1:36:246:39 9.033865BEERNEM
103.4461FVERMAST Benedicte50BEL1:37:456:45 8.903910SINT-ANDRIES
104.4367FTHYSSEN Romy52BEL1:38:396:49 8.823932
105.5402FCLAEYS Anna51BEL1:38:406:49 8.823934
106.2166FVANDERVEKEN Frieda54BEL1:39:216:52 8.763953SINT AGATHA BERCHEM
107.2165FDANEELS Inge50BEL1:39:236:52 8.753954DILBEEK
108.4716FDEVISSCHER Greet54BEL1:39:426:53 8.733964SINT-ANDRIES
109.4570FDESLYPER Nicole53BEL1:47:217:25 8.104051OEDELEM
110.4761FDE BUYSERE Rosemarie51BEL1:51:317:42 7.804075ASSEBROEK
111.5456FBROES Heidie52BEL1:52:157:45 7.754078
DNF: abandon; DSQ: disqualifié; Vitesse en km/h